Weather History for Indianapolis, IN

Change the Weather History Date:

Wednesday, June 18, 2014

  Actual Average (KEYE) Record (KEYE)
Temperature  
Mean Temperature 80 °F 73 °F  
Max Temperature 91 °F 82 °F 90 °F (2012)
Min Temperature 69 °F 65 °F 50 °F (1999)
Degree Days  
Heating Degree Days 0 0  
Month to date heating degree days 12  
Since 1 June heating degree days 12  
Since 1 July heating degree days 5346  
Cooling Degree Days 14 8  
Month to date cooling degree days 119  
Year to date cooling degree days 203  
Since 1 June cooling degree days 119  
Growing Degree Days 30 (Base 50)    
Moisture  
Dew Point 67 °F    
Average Humidity 70    
Maximum Humidity 87    
Minimum Humidity 46    
Precipitation  
Precipitation 0.11 in 0.13 in 1.07 in (1992)
Month to date precipitation 2.60  
Year to date precipitation 19.41  
Sea Level Pressure  
Sea Level Pressure 30.03 in    
Wind  
Wind Speed 9 mph (SW)    
Max Wind Speed 20 mph    
Max Gust Speed 25 mph    
Visibility 10 miles    
Events Rain , Thunderstorm    
T = Trace of Precipitation, MM = Missing Value Source: NWS Daily Summary

Daily Weather History Graph

Daily Weather History Graph

Search for Another Location

Airport:

Trip Planner

Search our weather history database for the weather conditions in past years. The results will help you decide how hot, cold, wet, or windy it might be!

Date:

Astronomy

Jun. 18, 2014 Rise Set
Actual Time 6:15 AM EDT 9:16 PM EDT
Civil Twilight 5:42 AM EDT 9:49 PM EDT
Nautical Twilight 5:01 AM EDT 10:31 PM EDT
Astronomical Twilight 4:12 AM EDT 11:20 PM EDT
Moon 12:45 AM EDT (6/18) 12:38 PM EDT (6/18)
Length of Visible Light 16h 06m
Length of Day
15h 00m
Waning Gibbous, 63% of the Moon is Illuminated
Jun 18
Waning Gibbous
Jun 19
Last Quarter
Jun 27
New
Jul 5
First Quarter
Jul 12
Full

Hourly Weather History & Observations

Time (EDT) Temp. Heat Index Dew Point Humidity Pressure Visibility Wind Dir Wind Speed Gust Speed Precip Events Conditions
12:15 AM 78.6 °F - 67.6 °F 69% 30.04 in 10.0 mi South 5.8 mph - N/A   Clear
12:35 AM 77.9 °F - 67.8 °F 71% 30.04 in 10.0 mi South 6.9 mph - N/A   Clear
12:55 AM 78.1 °F - 68.0 °F 71% 30.04 in 10.0 mi SSW 9.2 mph - N/A   Clear
1:15 AM 77.9 °F - 67.8 °F 71% 30.03 in 10.0 mi SSW 9.2 mph - N/A   Clear
1:35 AM 77.9 °F - 67.6 °F 71% 30.04 in 10.0 mi SSW 8.1 mph - N/A   Clear
2:15 AM 77.0 °F - 67.6 °F 73% 30.03 in 10.0 mi SW 8.1 mph - N/A   Clear
2:35 AM 77.0 °F - 67.8 °F 73% 30.03 in 10.0 mi SW 9.2 mph - N/A   Clear
2:55 AM 77.0 °F - 67.6 °F 73% 30.04 in 10.0 mi SSW 9.2 mph - N/A   Clear
3:15 AM 76.8 °F - 67.5 °F 73% 30.04 in 10.0 mi SSW 9.2 mph - N/A   Clear
3:35 AM 76.5 °F - 67.6 °F 74% 30.04 in 10.0 mi SSW 9.2 mph - N/A   Clear
3:55 AM 76.1 °F - 67.5 °F 74% 30.03 in 10.0 mi SSW 8.1 mph - N/A   Clear
4:15 AM 75.6 °F - 67.5 °F 76% 30.03 in 10.0 mi SSW 8.1 mph - N/A   Clear
4:35 AM 75.2 °F - 67.5 °F 77% 30.03 in 10.0 mi SW 8.1 mph - N/A   Clear
4:55 AM 74.8 °F - 67.5 °F 78% 30.03 in 10.0 mi SW 9.2 mph - N/A   Clear
5:15 AM 74.8 °F - 67.5 °F 78% 30.01 in 10.0 mi SW 10.4 mph - N/A   Clear
5:35 AM 74.5 °F - 67.1 °F 78% 30.01 in 10.0 mi SW 9.2 mph - N/A   Clear
5:55 AM 74.5 °F - 67.1 °F 78% 30.00 in 10.0 mi SSW 10.4 mph - N/A   Clear
6:15 AM 74.3 °F - 67.1 °F 78% 30.00 in 10.0 mi SSW 9.2 mph - N/A   Clear
6:35 AM 73.8 °F - 67.1 °F 80% 30.02 in 10.0 mi SW 6.9 mph - N/A   Clear
6:55 AM 73.8 °F - 67.1 °F 80% 30.03 in 7.0 mi SSW 8.1 mph - N/A   Clear
7:15 AM 74.3 °F - 67.5 °F 79% 30.05 in 7.0 mi SW 6.9 mph - N/A   Clear
7:35 AM 74.5 °F - 67.5 °F 79% 30.04 in 7.0 mi SSW 9.2 mph - N/A   Clear
7:55 AM 75.2 °F - 67.6 °F 77% 30.06 in 10.0 mi SW 8.1 mph - N/A   Scattered Clouds
8:15 AM 75.9 °F - 68.0 °F 76% 30.06 in 10.0 mi SSW 9.2 mph - N/A   Scattered Clouds
8:35 AM 77.0 °F - 68.2 °F 74% 30.07 in 10.0 mi SW 10.4 mph - N/A   Scattered Clouds
8:55 AM 78.3 °F - 68.2 °F 71% 30.07 in 10.0 mi SW 10.4 mph - N/A   Clear
9:15 AM 79.3 °F - 68.0 °F 68% 30.08 in 10.0 mi SW 10.4 mph 17.3 mph N/A   Clear
9:35 AM 80.2 °F 83.0 °F 68.2 °F 67% 30.07 in 10.0 mi SW 10.4 mph 16.1 mph N/A   Clear
10:15 AM 82.8 °F 86.0 °F 68.5 °F 62% 30.06 in 10.0 mi WSW 13.8 mph - N/A   Clear
10:35 AM 83.7 °F 87.0 °F 68.4 °F 60% 30.05 in 10.0 mi WSW 12.7 mph - N/A   Clear
10:55 AM 83.8 °F 87.3 °F 68.5 °F 60% 30.05 in 10.0 mi SW 12.7 mph - N/A   Scattered Clouds
11:15 AM 84.2 °F 87.3 °F 68.2 °F 58% 30.04 in 10.0 mi SW 11.5 mph - N/A   Scattered Clouds
11:35 AM 84.9 °F 88.2 °F 68.4 °F 57% 30.05 in 10.0 mi SW 10.4 mph - N/A   Scattered Clouds
11:55 AM 86.7 °F 90.6 °F 68.7 °F 55% 30.05 in 10.0 mi WSW 11.5 mph - N/A   Scattered Clouds
12:15 PM 86.2 °F 89.7 °F 68.4 °F 55% 30.06 in 10.0 mi WSW 12.7 mph - N/A   Scattered Clouds
12:35 PM 86.9 °F 90.6 °F 68.2 °F 54% 30.05 in 10.0 mi SW 13.8 mph - N/A   Scattered Clouds
12:55 PM 86.9 °F 90.3 °F 67.8 °F 53% 30.05 in 10.0 mi SW 13.8 mph - N/A   Mostly Cloudy
1:15 PM 87.8 °F 91.1 °F 67.8 °F 51% 30.04 in 7.0 mi SW 11.5 mph - N/A   Scattered Clouds
1:35 PM 87.3 °F 90.5 °F 67.6 °F 52% 30.04 in 10.0 mi SW 10.4 mph 17.3 mph N/A   Mostly Cloudy
2:15 PM 90.1 °F 93.5 °F 67.3 °F 47% 30.02 in 10.0 mi SW 15.0 mph 21.9 mph N/A   Scattered Clouds
2:35 PM 90.3 °F 93.9 °F 67.5 °F 47% 30.02 in 10.0 mi SW 16.1 mph 21.9 mph N/A   Scattered Clouds
2:55 PM 90.1 °F 93.5 °F 67.5 °F 47% 30.00 in 10.0 mi SW 19.6 mph 25.3 mph N/A   Scattered Clouds
3:35 PM 90.9 °F 94.4 °F 67.3 °F 46% 30.00 in 10.0 mi SSW 19.6 mph 24.2 mph N/A   Scattered Clouds
3:55 PM 88.9 °F 92.2 °F 67.5 °F 49% 29.99 in 10.0 mi SW 16.1 mph 25.3 mph N/A   Scattered Clouds
4:35 PM 83.7 °F 86.7 °F 67.8 °F 59% 30.01 in 7.0 mi NNW 9.2 mph - 0.01 in Rain Rain
4:55 PM 82.0 °F 85.1 °F 68.5 °F 63% 30.00 in 10.0 mi West 6.9 mph - 0.01 in   Overcast
5:15 PM 86.9 °F 90.6 °F 68.5 °F 54% 29.99 in 10.0 mi SW 11.5 mph 18.4 mph N/A Thunderstorm Thunderstorm
5:35 PM 84.6 °F 85.0 °F 61.7 °F 46% 30.01 in 10.0 mi WNW 16.1 mph 21.9 mph N/A Thunderstorm Thunderstorm
6:15 PM 69.3 °F - 64.4 °F 84% 30.01 in 7.0 mi ENE 3.5 mph - 0.09 in Rain , Thunderstorm Light Thunderstorms and Rain
6:35 PM 70.3 °F - 64.2 °F 81% 30.00 in 10.0 mi SSE 11.5 mph - 0.10 in Rain , Thunderstorm Thunderstorms and Rain
6:55 PM 70.5 °F - 63.5 °F 78% 29.96 in 10.0 mi South 6.9 mph - 0.10 in   Clear
7:15 PM 70.5 °F - 63.5 °F 78% 29.97 in 10.0 mi South 6.9 mph - N/A Thunderstorm Clear
7:35 PM 70.7 °F - 63.9 °F 79% 29.97 in 10.0 mi WSW 9.2 mph - N/A   Clear
7:55 PM 71.1 °F - 64.2 °F 79% 29.98 in 10.0 mi SW 5.8 mph - N/A   Clear
8:15 PM 71.8 °F - 64.9 °F 79% 29.98 in 10.0 mi South 4.6 mph - N/A   Clear
8:35 PM 72.3 °F - 65.3 °F 78% 29.98 in 10.0 mi South 3.5 mph - N/A   Clear
8:55 PM 72.1 °F - 66.2 °F 82% 30.00 in 10.0 mi NNE 6.9 mph - N/A   Clear
9:15 PM 71.4 °F - 65.8 °F 82% 30.00 in 10.0 mi Calm Calm - N/A   Clear
9:35 PM 70.9 °F - 65.7 °F 83% 30.01 in 10.0 mi Calm Calm - N/A   Clear
9:55 PM 70.7 °F - 66.2 °F 86% 30.03 in 10.0 mi Calm Calm - N/A   Clear
10:15 PM 70.7 °F - 66.2 °F 86% 30.03 in 10.0 mi Calm Calm - N/A   Scattered Clouds
10:35 PM 70.3 °F - 65.8 °F 86% 30.02 in 10.0 mi Calm Calm - N/A   Scattered Clouds
10:55 PM 70.2 °F - 65.8 °F 86% 30.03 in 10.0 mi Calm Calm - N/A   Clear
11:15 PM 70.2 °F - 66.2 °F 87% 30.03 in 10.0 mi Calm Calm - N/A   Scattered Clouds
11:35 PM 70.2 °F - 66.2 °F 87% 30.04 in 10.0 mi Calm Calm - N/A   Scattered Clouds
11:55 PM 70.5 °F - 66.4 °F 87% 30.06 in 10.0 mi NNW 16.1 mph 25.3 mph N/A Thunderstorm Thunderstorm